Tracking 29892 objects as of 21-Nov-2024
HD Live streaming from Space Station
objects crossing your sky now

COSMOS 1199

Track COSMOS 1199 now!
10-day predictions
COSMOS 1199 is classified as:


NORAD ID: 11882
Int'l Code: 1980-058H
Perigee: 1,480.6 km
Apogee: 1,536.7 km
Inclination: 74.0 °
Period: 116.0 minutes
Semi major axis: 7879 km
RCS: 0.728 m2 (medium)
Launch date: July 9, 1980
Source: Commonwealth of Independent States (former USSR) (CIS)
Launch site: PLESETSK MISSILE AND SPACE COMPLEX (PKMTR)
Your satellite tracking list
Your tracking list is empty




NASA's NSSDC Master Catalog

Two Line Element Set (TLE):
1 11882U 80058H   24325.54082748 -.00000006  00000-0  66382-4 0  9991
2 11882  74.0196 351.6004 0035588  81.6719  86.2020 12.41194907 10253
Source of the keplerian elements: AFSPC